Regional Weather Roundup
Issued by NWS Green Bay, WI

Home | Current Version | Previous Version | Graphics & Text | Print | Product List | Glossary Off
Versions: 1 2 3 4 5 6 7 8 9 10 11 12 13 14 15 16 17 18 19 20 21 22 23 24 25 26 27 28 29 30 31 32 33 34 35 36 37 38 39 40 41 42 43 44 45 46 47 48 49 50

000
ASUS43 KGRB 222300
RWRGRB

NORTH-CENTRAL AND NORTHEAST WISCONSIN REGIONAL WEATHER ROUNDUP
NATIONAL WEATHER SERVICE GREEN BAY WI
500 PM CST WED FEB 22 2017

WIZ005-009-010>012-018-019-230000-
NORTH CENTRAL WISCONSIN

CITY           SKY/WX    TMP DP  RH WIND       PRES   REMARKS
IRONWOOD       MOCLDY    42  35  76 NE6       29.56S
MANITOWISH WTR NOT AVBL
ARBOR VITAE    NOT AVBL
EAGLE RIVER    NOT AVBL
LAND O LAKES   CLOUDY    42  42 100 NE5       29.56F FOG
RHINELANDER    CLOUDY    47  44  90 E7        29.52F
PHILLIPS       CLOUDY    46  44  95 N5        29.53R
ANTIGO         NOT AVBL
TOMAHAWK       NOT AVBL
MERRILL        NOT AVBL
$$

WIZ013-073-230000-
NORTHEAST WISCONSIN

CITY           SKY/WX    TMP DP  RH WIND       PRES   REMARKS
IRON MOUNTAIN  CLOUDY    45  40  82 NE3       29.56F
MARINETTE      MOCLDY    47  42  83 CALM      29.58R
OCONTO         CLOUDY    55  44  64 N8        29.54F
$$

WIZ017-030-035>037-045-230000-
CENTRAL WISCONSIN

CITY           SKY/WX    TMP DP  RH WIND       PRES   REMARKS
MEDFORD        NOT AVBL
WAUSAU         CLOUDY    52  38  58 S6        29.50F
MOSINEE        MOCLDY    50  39  66 S7        29.54R
MARSHFIELD     CLOUDY    51  42  71 S10       29.53R
WISC RAPIDS    MOCLDY    58  37  45 CALM      29.55R
STEVENS POINT  NOT AVBL
WAUPACA        PTCLDY    59  38  46 CALM      29.53R
SHAWANO        CLOUDY    53  40  61 NE5       29.53F
CLINTONVILLE   MOCLDY    55  39  54 NE8       29.51F
WAUTOMA        CLOUDY    60  42  51 NW3       29.54R
$$

WIZ038-039-048-051-230000-
FOX VALLEY

CITY           SKY/WX    TMP DP  RH WIND       PRES   REMARKS
NWS GREEN BAY  MOCLDY    58  49  72 N9        29.53R
APPLETON       MOCLDY    59  39  47 N8        29.52R
OSHKOSH        PTCLDY    62  50  64 SW5       29.52R
FOND DU LAC    PTCLDY    63  46  54 W7        29.51F
$$

WIZ022-050-052-230000-
EAST CENTRAL WISCONSIN

CITY           SKY/WX    TMP DP  RH WIND       PRES   REMARKS
EPHRAIM        NOT AVBL
WASHINGTON ISL FOG       41  41  99 SW3       29.60R VSB 1/2
STURGEON BAY   CLOUDY    47  43  86 E6        29.57R
MANITOWOC      NOT AVBL
SHEBOYGAN      PTCLDY    56  46  69 E6        29.51S
$$

LMZ563-521-522-541>543-230000-
LAKESHORE

STATION/POSITION TIME  TEMP    WIND        PRES    VSBY  WAVE
                       AIR SEA DIR/SP/G                  HT/PER
                 (UTC) (F)     (DEG/KT/KT) (MB)    (MI)  (FT/S)
SHEBOYGAN LKSHOR 2200   44     180/ 24/ 25  999.7F
KEWAUNEE LKSHORE 2230   39     180/  6/  8 1000.2R
NORTHPORT PIER   2230   39     310/  4/  6 1001.4S
SISTER BAY LKSHO 2150   45     160/  5/  6   N/A
CHAMBERS ISLAND  2230   38     320/  4/  6 1001.4R
MENOMINEE LKSHOR 2230   43     340/  6/  8 1000.8R
$$




USA.gov is the U.S. government's official web portal to all federal, state and local government web resources and services.